User: anonymous   Login
Location: Caltech
(34.1382°N, 118.1253°W)
Time: 13:08:32
(UTC-08:00)
Language:

Cosmos 2322 - Orbit

View from above orbital plane
View from above orbital plane
View from above satellite
View from above satellite

Ground track
Ground track

The orbit data is extracted from the following two-line orbital elements,

1 23704U 95058A   14326.28606316 -.00000235  00000-0 -99819-4 0  1478
2 23704 070.9863 209.4742 0006950 060.0488 078.3308 14.13286505983324
Epoch (UTC): 22 November 2014 06:51:55
Eccentricity: 0.0006950
inclination: 70.9863°
perigee height: 843 km
apogee height: 853 km
right ascension of ascending node: 209.4742°
argument of perigee: 60.0488°
revolutions per day: 14.13286505
mean anomaly at epoch: 78.3308°
orbit number at epoch: 98332

The dashed part of the orbit path shows where the satellite is in the earth's shadow,  

DLR